timestamp,wind_dir_avg,wind_spd_avg,wind_spd_max_dir,wind_spd_gust,battery_voltage,lat,long
2021-01-13 00:04:01+00:00,253.0,5.54,254.0,6.81,12.49,47.59359,-54.27349
2021-01-13 00:14:01+00:00,262.0,6.21,262.0,7.4,12.49,47.59359,-54.27349
2021-01-13 00:24:01+00:00,237.0,5.98,238.0,7.17,12.49,47.59359,-54.27349
2021-01-13 00:34:01+00:00,262.0,4.9,255.0,5.4,12.49,47.59359,-54.27349
2021-01-13 00:44:01+00:00,264.0,4.75,261.0,5.1,12.49,47.59359,-54.27349
2021-01-13 00:54:01+00:00,263.0,4.62,269.0,5.12,12.49,47.59359,-54.27349
2021-01-13 01:04:01+00:00,267.0,4.24,267.0,4.84,12.49,47.59359,-54.27349
2021-01-13 01:14:01+00:00,258.0,5.53,261.0,6.57,12.41,47.59359,-54.27349
2021-01-13 01:24:01+00:00,262.0,5.68,274.0,6.67,12.41,47.59359,-54.27349
2021-01-13 01:34:01+00:00,264.0,4.73,263.0,5.3,12.41,47.59359,-54.27349
2021-01-13 01:44:01+00:00,260.0,4.39,274.0,5.09,12.41,47.59359,-54.27349
2021-01-13 01:54:01+00:00,260.0,4.75,258.0,5.39,12.41,47.59359,-54.27349
2021-01-13 02:04:01+00:00,265.0,4.26,264.0,4.74,12.41,47.59359,-54.27349
2021-01-13 02:14:01+00:00,275.0,4.88,265.0,5.74,12.41,47.59359,-54.27349
2021-01-13 02:24:01+00:00,267.0,5.17,268.0,5.76,12.41,47.59359,-54.27349
2021-01-13 02:34:01+00:00,277.0,4.79,280.0,5.24,12.41,47.59359,-54.27349
2021-01-13 02:44:01+00:00,273.0,4.61,276.0,5.14,12.41,47.59359,-54.27349
2021-01-13 02:54:01+00:00,283.0,4.35,279.0,4.92,12.41,47.59359,-54.27349
2021-01-13 03:04:01+00:00,276.0,4.18,283.0,4.81,12.41,47.59359,-54.27349
2021-01-13 03:14:01+00:00,279.0,3.23,280.0,3.88,12.33,47.59359,-54.27349
2021-01-13 03:24:01+00:00,265.0,3.24,272.0,3.97,12.33,47.59359,-54.27349
2021-01-13 03:34:01+00:00,284.0,3.22,289.0,3.64,12.33,47.59359,-54.27349
2021-01-13 03:44:01+00:00,280.0,3.34,273.0,3.7,12.33,47.59359,-54.27349
2021-01-13 03:54:01+00:00,270.0,2.87,273.0,3.26,12.33,47.59359,-54.27349
2021-01-13 04:04:01+00:00,301.0,3.57,302.0,4.07,12.33,47.59359,-54.27349
2021-01-13 04:14:01+00:00,303.0,3.22,302.0,3.62,12.33,47.59359,-54.27349
2021-01-13 04:24:01+00:00,293.0,3.01,298.0,3.35,12.33,47.59359,-54.27349
2021-01-13 04:34:01+00:00,290.0,3.21,297.0,3.6,12.33,47.59359,-54.27349
2021-01-13 04:44:01+00:00,292.0,3.07,297.0,3.48,12.33,47.59359,-54.27349
2021-01-13 04:54:01+00:00,298.0,2.09,292.0,2.44,12.33,47.59359,-54.27349
2021-01-13 05:04:01+00:00,313.0,2.05,313.0,2.34,12.33,47.59359,-54.27349
2021-01-13 05:14:01+00:00,301.0,1.84,315.0,2.42,12.33,47.59359,-54.27349
2021-01-13 05:24:01+00:00,3.0,1.9,4.0,2.16,12.33,47.59359,-54.27349
2021-01-13 05:34:01+00:00,348.0,2.68,334.0,3.13,12.33,47.59359,-54.27349
2021-01-13 05:44:01+00:00,340.0,2.94,340.0,3.56,12.33,47.59359,-54.27349
2021-01-13 05:54:01+00:00,347.0,2.61,345.0,3.19,12.33,47.59359,-54.27349
2021-01-13 06:04:01+00:00,343.0,2.78,340.0,3.17,12.33,47.59359,-54.27349
2021-01-13 06:14:01+00:00,344.0,2.41,350.0,3.32,12.33,47.59359,-54.27349
2021-01-13 06:24:01+00:00,339.0,1.89,336.0,2.43,12.33,47.59359,-54.27349
2021-01-13 06:34:01+00:00,345.0,2.52,344.0,3.08,12.33,47.59359,-54.27349
2021-01-13 06:44:01+00:00,347.0,2.47,343.0,2.89,12.33,47.59359,-54.27349
2021-01-13 06:54:01+00:00,343.0,2.26,346.0,3.13,12.33,47.59359,-54.27349
2021-01-13 07:04:01+00:00,345.0,2.48,329.0,2.93,12.33,47.59359,-54.27349
2021-01-13 07:14:01+00:00,343.0,1.66,357.0,2.1,12.33,47.59359,-54.27349
2021-01-13 07:24:01+00:00,15.0,2.14,21.0,2.45,12.33,47.59359,-54.27349
2021-01-13 07:34:01+00:00,349.0,2.33,342.0,2.58,12.33,47.59359,-54.27349
2021-01-13 07:44:01+00:00,334.0,3.01,345.0,3.63,12.33,47.59359,-54.27349
2021-01-13 07:54:01+00:00,327.0,4.33,322.0,5.08,12.33,47.59359,-54.27349
2021-01-13 08:04:01+00:00,323.0,4.16,328.0,4.72,12.33,47.59359,-54.27349
2021-01-13 08:14:01+00:00,321.0,3.66,322.0,4.03,12.25,47.59359,-54.27349
2021-01-13 08:24:01+00:00,333.0,3.02,322.0,4.08,12.25,47.59359,-54.27349
2021-01-13 08:34:01+00:00,324.0,2.73,320.0,3.61,12.25,47.59359,-54.27349
2021-01-13 08:44:01+00:00,330.0,3.81,333.0,4.45,12.25,47.59359,-54.27349
2021-01-13 08:54:01+00:00,348.0,2.66,351.0,3.48,12.25,47.59359,-54.27349
2021-01-13 09:04:01+00:00,352.0,2.76,345.0,3.63,12.25,47.59359,-54.27349
2021-01-13 09:14:01+00:00,0.0,2.92,1.0,3.58,12.25,47.59359,-54.27349
2021-01-13 09:24:01+00:00,1.0,3.77,2.0,4.13,12.25,47.59359,-54.27349
2021-01-13 09:34:01+00:00,11.0,4.0,20.0,4.58,12.25,47.59359,-54.27349
2021-01-13 09:44:01+00:00,9.0,4.33,13.0,4.99,12.25,47.59359,-54.27349
2021-01-13 09:54:01+00:00,21.0,3.92,19.0,4.42,12.25,47.59359,-54.27349
2021-01-13 10:04:01+00:00,358.0,4.09,10.0,4.78,12.25,47.59359,-54.27349
2021-01-13 10:14:01+00:00,10.0,4.31,22.0,4.95,12.25,47.59359,-54.27349
2021-01-13 10:24:01+00:00,27.0,2.93,24.0,3.52,12.25,47.59359,-54.27349
2021-01-13 10:34:01+00:00,16.0,2.71,22.0,3.2,12.25,47.59359,-54.27349
2021-01-13 10:44:01+00:00,23.0,2.52,26.0,3.39,12.25,47.59359,-54.27349
2021-01-13 10:54:01+00:00,2.0,2.69,0.0,3.22,12.25,47.59359,-54.27349
2021-01-13 11:04:01+00:00,19.0,1.94,30.0,2.29,12.25,47.59359,-54.27349
2021-01-13 11:14:01+00:00,11.0,2.85,17.0,3.4,12.25,47.59359,-54.27349
2021-01-13 11:24:01+00:00,24.0,2.28,20.0,2.9,12.25,47.59359,-54.27349
2021-01-13 11:34:01+00:00,13.0,2.41,16.0,2.88,12.25,47.59359,-54.27349
2021-01-13 11:44:01+00:00,4.0,1.98,3.0,2.3,12.25,47.59359,-54.27349
2021-01-13 11:54:01+00:00,344.0,2.27,343.0,2.56,12.25,47.59359,-54.27349
2021-01-13 12:04:01+00:00,350.0,3.26,348.0,4.01,12.25,47.59359,-54.27349
2021-01-13 12:14:01+00:00,351.0,3.41,353.0,3.98,12.25,47.59359,-54.27349
2021-01-13 12:24:01+00:00,335.0,2.8,344.0,3.9,12.25,47.59359,-54.27349
2021-01-13 12:34:01+00:00,357.0,2.47,358.0,3.22,12.25,47.59359,-54.27349
2021-01-13 12:44:01+00:00,4.0,3.17,358.0,3.9,12.25,47.59359,-54.27349
2021-01-13 12:54:01+00:00,8.0,2.66,1.0,3.48,12.25,47.59359,-54.27349
2021-01-13 13:04:01+00:00,21.0,3.81,17.0,4.53,12.25,47.59359,-54.27349
2021-01-13 13:14:01+00:00,32.0,3.87,28.0,4.6,12.41,47.59359,-54.27349
2021-01-13 13:24:01+00:00,18.0,4.48,22.0,5.18,12.41,47.59359,-54.27349
2021-01-13 13:34:01+00:00,10.0,4.32,11.0,5.42,12.41,47.59359,-54.27349
2021-01-13 13:44:01+00:00,2.0,4.88,2.0,5.7,12.41,47.59359,-54.27349
2021-01-13 13:54:01+00:00,3.0,5.02,10.0,5.82,12.41,47.59359,-54.27349
2021-01-13 14:04:01+00:00,2.0,5.03,2.0,5.77,12.41,47.59359,-54.27349
2021-01-13 14:14:01+00:00,10.0,4.12,7.0,5.18,12.65,47.59359,-54.27349
2021-01-13 14:24:01+00:00,2.0,4.26,5.0,5.12,12.65,47.59359,-54.27349
2021-01-13 14:34:01+00:00,0.0,2.91,0.0,4.06,12.65,47.59359,-54.27349
2021-01-13 14:44:01+00:00,27.0,1.84,26.0,2.35,12.65,47.59359,-54.27349
2021-01-13 14:54:01+00:00,42.0,2.79,33.0,3.48,12.65,47.59359,-54.27349
2021-01-13 15:04:01+00:00,60.0,1.37,53.0,2.06,12.65,47.59359,-54.27349
2021-01-13 15:14:01+00:00,41.0,2.09,47.0,2.4,13.21,47.59359,-54.27349
2021-01-13 15:24:01+00:00,24.0,2.54,42.0,3.32,13.21,47.59359,-54.27349
2021-01-13 15:34:01+00:00,35.0,3.08,32.0,3.85,13.21,47.59359,-54.27349
2021-01-13 15:44:01+00:00,52.0,2.44,54.0,3.03,13.21,47.59359,-54.27349
2021-01-13 15:54:01+00:00,44.0,1.37,46.0,2.04,13.21,47.59359,-54.27349
2021-01-13 16:04:01+00:00,124.0,2.03,126.0,2.48,13.21,47.59359,-54.27349
2021-01-13 16:14:01+00:00,138.0,1.35,137.0,1.65,13.21,47.59359,-54.27349
2021-01-13 16:24:01+00:00,97.0,1.23,120.0,1.83,13.21,47.59359,-54.27349
2021-01-13 16:34:01+00:00,117.0,1.38,121.0,1.95,13.21,47.59359,-54.27349
2021-01-13 16:44:01+00:00,74.0,1.03,80.0,1.48,13.21,47.59359,-54.27349
2021-01-13 16:54:01+00:00,99.0,1.31,111.0,1.93,13.21,47.59359,-54.27349
2021-01-13 17:04:01+00:00,124.0,1.75,109.0,3.01,13.21,47.59359,-54.27349
2021-01-13 17:14:01+00:00,129.0,0.79,110.0,1.31,13.29,47.59359,-54.27349
2021-01-13 17:24:01+00:00,71.0,1.04,62.0,1.4,13.29,47.59359,-54.27349
2021-01-13 17:34:01+00:00,53.0,0.86,52.0,1.14,13.29,47.59359,-54.27349
2021-01-13 17:44:01+00:00,133.0,1.45,141.0,1.75,13.29,47.59359,-54.27349
2021-01-13 17:54:01+00:00,142.0,0.82,144.0,1.28,13.29,47.59359,-54.27349
2021-01-13 18:04:01+00:00,49.0,1.16,52.0,1.41,13.29,47.59359,-54.27349
2021-01-13 18:14:01+00:00,84.0,1.29,76.0,1.79,13.05,47.59359,-54.27349
2021-01-13 18:24:01+00:00,114.0,2.11,109.0,2.47,13.05,47.59359,-54.27349
2021-01-13 18:34:01+00:00,128.0,1.24,139.0,1.66,13.05,47.59359,-54.27349
2021-01-13 18:44:01+00:00,150.0,1.24,137.0,1.56,13.05,47.59359,-54.27349
2021-01-13 18:54:01+00:00,122.0,1.7,130.0,2.01,13.05,47.59359,-54.27349
2021-01-13 19:04:01+00:00,90.0,0.75,88.0,1.29,13.05,47.59359,-54.27349
2021-01-13 19:14:01+00:00,147.0,0.86,146.0,1.17,13.05,47.59359,-54.27349
2021-01-13 19:24:01+00:00,85.0,1.19,98.0,1.55,13.05,47.59359,-54.27349
2021-01-13 19:34:01+00:00,137.0,2.13,145.0,2.49,13.05,47.59359,-54.27349
2021-01-13 19:44:01+00:00,122.0,1.56,146.0,2.05,13.05,47.59359,-54.27349
2021-01-13 19:54:01+00:00,158.0,1.76,157.0,2.33,13.05,47.59359,-54.27349
2021-01-13 20:04:01+00:00,128.0,0.3,124.0,0.53,13.05,47.59359,-54.27349
2021-01-13 20:14:01+00:00,115.0,1.24,105.0,1.61,12.65,47.59359,-54.27349
2021-01-13 20:24:01+00:00,138.0,1.43,132.0,1.91,12.65,47.59359,-54.27349
2021-01-13 20:34:01+00:00,116.0,1.75,126.0,2.36,12.65,47.59359,-54.27349
2021-01-13 20:44:01+00:00,127.0,1.98,124.0,2.46,12.65,47.59359,-54.27349
2021-01-13 20:54:01+00:00,130.0,2.25,130.0,2.67,12.65,47.59359,-54.27349
2021-01-13 21:04:01+00:00,132.0,2.02,124.0,2.55,12.65,47.59359,-54.27349
2021-01-13 21:14:01+00:00,123.0,1.97,125.0,2.28,12.57,47.59359,-54.27349
2021-01-13 21:24:01+00:00,126.0,2.05,118.0,2.47,12.57,47.59359,-54.27349
2021-01-13 21:34:01+00:00,127.0,1.67,132.0,1.92,12.57,47.59359,-54.27349
2021-01-13 21:44:01+00:00,129.0,2.14,120.0,2.57,12.57,47.59359,-54.27349
2021-01-13 21:54:01+00:00,135.0,2.47,139.0,2.97,12.57,47.59359,-54.27349
2021-01-13 22:04:01+00:00,128.0,1.73,133.0,2.22,12.57,47.59359,-54.27349
2021-01-13 22:14:01+00:00,102.0,1.1,100.0,1.4,12.49,47.59359,-54.27349
2021-01-13 22:24:01+00:00,123.0,1.37,122.0,1.69,12.49,47.59359,-54.27349
2021-01-13 22:34:01+00:00,105.0,0.99,105.0,1.22,12.49,47.59359,-54.27349
2021-01-13 22:44:01+00:00,96.0,1.19,103.0,1.72,12.49,47.59359,-54.27349
2021-01-13 22:54:01+00:00,103.0,1.0,100.0,1.4,12.49,47.59359,-54.27349
2021-01-13 23:04:01+00:00,91.0,0.84,90.0,1.07,12.49,47.59359,-54.27349
2021-01-13 23:14:01+00:00,100.0,1.41,110.0,1.69,12.49,47.59359,-54.27349
2021-01-13 23:24:01+00:00,114.0,1.82,113.0,2.39,12.49,47.59359,-54.27349
2021-01-13 23:34:01+00:00,102.0,1.49,111.0,1.91,12.49,47.59359,-54.27349
2021-01-13 23:44:01+00:00,99.0,1.6,97.0,1.97,12.49,47.59359,-54.27349
2021-01-13 23:54:01+00:00,106.0,1.46,108.0,1.85,12.49,47.59359,-54.27349
